Preview of NWS' New Version of Forecast
This preview is not operational and should not be used for support decisions.

Regional Weather Roundup (RWR)

Issued by National Weather Service (NWS)

                            
000
ASUS42 KTBW 201318
RWRFL 
FLORIDA REGIONAL WEATHER ROUNDUP
NATIONAL WEATHER SERVICE TAMPA BAY RUSKIN FL
900 AM EDT SAT JUL 20 2019

NOTE: "FAIR" INDICATES FEW OR NO CLOUDS BELOW 12,000 FEET WITH NO
SIGNIFICANT WEATHER AND/OR OBSTRUCTIONS TO VISIBILITY.

FLZ001>010-012>015-112-114-115-201400-
PANHANDLE FLORIDA
  
CITY           SKY/WX    TMP DP  RH WIND       PRES   REMARKS
PENSACOLA      FAIR      80  77  90 NW3       30.08R                  
PENSACOLA NAS  CLOUDY    78  77  96 CALM      30.08S                  
MILTON NAS     PTSUNNY   75  74  96 NE3       30.09R                  
CRESTVIEW      FAIR      73  71  93 CALM      30.11R                  
DUKE FIELD     FAIR      75  75 100 CALM      30.09R                  
VALPARAISO     CLOUDY    77  72  83 S15       30.09R                  
MARY ESTHER    PTSUNNY   77  74  92 SE20      30.07R                  
TRI COUNTY     FAIR      78  74  87 CALM      30.11R                  
PANAMA CITY    LGT RAIN  76  72  87 SE6       30.09S                  
TYNDALL AFB    TSTM      77  75  94 N6        30.09R                  
APALACHICOLA   LGT RAIN  75  69  81 SE8       30.10R                  

STATION/POSITION SKY/WX   TEMP    WIND        PRES    WAVE   SWELL
                          AIR SEA DIR/SP/G            HT/PER HT/PER
                          (F)     (DEG/KT/KT) (MB)    (FT/S) (FT/S)
30.1N   87.6W              78 85  260/ 14/ 17 1018.7R   1/ 9
29.2N   88.2W              85 85  260/  2/  4 1018.5
28.8N   86.0W                 86  160/ 10/ 12 1018.4R   1/ 8   2/ 8
PANAMA CITY BEAC                  260/  9/ 12   N/A
TOWER C                    78      10/ 10/ 10 1019.2F
28.5N   84.5W              85     130/  8/ 10 1019.3R   1/ 4

$$
FLZ011-016>038-118-127-128-134-139-239-201400-
NORTH FLORIDA
  
CITY           SKY/WX    TMP DP  RH WIND       PRES   REMARKS
MARIANNA       FAIR      77  74  90 SE5       30.10R                  
TALLAHASSEE    PTSUNNY   78  74  87 CALM      30.11R                  
PERRY          FAIR      79  75  87 SE3       30.12R                  
LIVE OAK       SUNNY     75  75 100 CALM      30.12R                  
CROSS CITY     FAIR      80  73  81 E6        30.11R                  
LAKE CITY      FAIR      75  70  83 CALM      30.12R                  
GAINESVILLE    FAIR      78  73  84 CALM      30.14R                  
WILLISTON      FAIR      79  75  88 CALM      30.11R                  
PALATKA        FAIR      79  73  83 CALM      30.12R                  
MAYPORT NAS    FAIR      82  74  76 E3        30.11R                  
JACKSONVILLE   FAIR      80  73  79 CALM      30.10R                  
JAX NAS        FAIR      81  73  76 E6        30.11R                  
JAX CECIL      SUNNY     82  75  78 VRB5      30.11R                  
FERNANDINA BEA FAIR      81  75  82 E6        30.11R                  
ST AUGUSTINE   FAIR      82  77  84 E3        30.12R                  
PALM COAST     SUNNY     77  73  88 CALM      30.11R                  

STATION/POSITION SKY/WX   TEMP    WIND        PRES    WAVE   SWELL
                          AIR SEA DIR/SP/G            HT/PER HT/PER
                          (F)     (DEG/KT/KT) (MB)    (FT/S) (FT/S)
SHELL POINT      NOT AVBL
KEATON BEACH               79      80/  7/  9 1019.6R
CEDAR KEY                  80     100/  9/ 10 1019.6R
FERNANDINA                 84 85   CALM  /  1 1020.0R
30.7N   81.3W                 83                N/A     2/ 9
MAYPORT                    80 84   CALM  /  2 1019.8R
31.4N   80.9W              81 84  240/  6/  8 1019.4R   2/ 9   2/ 9
ST AUGUSTINE               79 76   30/  2/  2 1019.8R

$$
FLZ040-043>046-052-053-057-058-063-144-201400-
INTERIOR CENTRAL FLORIDA
  
CITY           SKY/WX    TMP DP  RH WIND       PRES   REMARKS
OCALA          FAIR      80  74  81 E3        30.12R                  
LEESBURG       FAIR      81  74  79 CALM      30.12R                  
SANFORD        FAIR      82  76  81 SE6       30.10R                  
ORLANDO EXEC   FAIR      83  76  79 S3        30.10R                  
ORLANDO INTL   FAIR      82  75  79 VRB5      30.10R                  
KISSIMMEE      FAIR      84  77  79 SE6       30.11R                  
WINTER HAVEN   FAIR      83  76  79 SE6       30.12R                  
LAKELAND       MOSUNNY   82  75  78 SE3       30.11R                  
BARTOW         MOSUNNY   82  77  83 SE7       30.10R                  
SEBRING        FAIR      82  76  83 E7        30.10S                  
OKEECHOBEE     FAIR      81  75  83 CALM      30.10S                  

$$
FLZ041-047-054-059-064-141-147-201400-
EAST CENTRAL FLORIDA
  
CITY           SKY/WX    TMP DP  RH WIND       PRES   REMARKS
ORMOND BEACH   SUNNY     81  75  83 CALM      30.11R                  
DAYTONA BEACH  FAIR      83  76  79 CALM      30.11R                  
DELAND         FAIR      79  73  83 CALM      30.11R                  
NEW SMYRNA BEA SUNNY     84  75  74 CALM      30.12R                  
JFK SPACE CTR  FAIR      82  69  65 CALM      30.10R                  
TITUSVILLE     MOSUNNY   84  82  94 S5        30.11R HX 101           
CAPE CANAVERAL FAIR      81  53  37 NE3       30.09R                  
PATRICK AFB    FAIR      82  82 100 CALM      30.10R THUNDER HX  97   
MELBOURNE      FAIR      82  77  84 CALM      30.11R                  
VERO BEACH     FAIR      78  77  96 SE3       30.11R                  
FT PIERCE      FAIR      79  76  90 CALM      30.10R                  
STUART         MOSUNNY   82  73  74 SE6       30.10S                  

STATION/POSITION SKY/WX   TEMP    WIND        PRES    WAVE   SWELL
                          AIR SEA DIR/SP/G            HT/PER HT/PER
                          (F)     (DEG/KT/KT) (MB)    (FT/S) (FT/S)
28.5N   80.2W              83 84  160/  8/ 10 1019.3R   1/ 9   2/ 9
28.9N   78.5W              85 86  160/ 10/ 14 1020.1R   3/ 9   2/ 9
TRIDENT PIER               80 82  340/  1/  2 1020.5R
28.4N   80.5W                 81                N/A     1/ 9
27.5N   80.2W                 83                N/A     1/ 9

$$
FLZ050-056-061-142-242-148-248-149-249-151-251-155-255-
160-260-201400-
WEST CENTRAL FLORIDA
  
CITY           SKY/WX    TMP DP  RH WIND       PRES   REMARKS
CRYSTAL RIVER  FAIR      81  73  78 E5        30.11R                  
INVERNESS      FAIR      79  79 100 E3        30.11R                  
BROOKSVILLE    FAIR      79  75  87 E6        30.11R                  
CLEARWATER AIR FAIR      81  73  78 SE5       30.09R                  
ST PETE CLEARW FAIR      81  74  79 SE8       30.09R                  
TAMPA INTL     PTSUNNY   83  75  77 SE7       30.10R                  
TAMPA EXEC     FAIR      81  77  89 CALM      30.11R                  
PLANT CITY     FAIR     N/A N/A N/A MISG      30.12R                  
MACDILL AFB    FAIR      83  75  78 SE8       30.09R                  
PETER O KNIGHT CLOUDY    82  77  83 E7        30.10R                  
ST PETERSBURG  FAIR      83  75  77 SE10      30.08R                  
SARASOTA       FAIR      81  75  82 E9        30.07R                  
VENICE         FAIR      82  75  78 E9        30.09R                  

STATION/POSITION SKY/WX   TEMP    WIND        PRES    WAVE   SWELL
                          AIR SEA DIR/SP/G            HT/PER HT/PER
                          (F)     (DEG/KT/KT) (MB)    (FT/S) (FT/S)
27.3N   84.2W                 86                N/A     2/ 4
CLEARWATER BEACH                  110/  7/ 10   N/A
MIDDLE TAMPA BAY           80     120/  9/ 10 1019.0R
VENICE                     80 86   80/  7/  9 1018.8R

$$
FLZ066-069-070-075>078-162-262-165-265-201400-
SOUTHWEST FLORIDA AND KEYS
  
CITY           SKY/WX    TMP DP  RH WIND       PRES   REMARKS
PUNTA GORDA    FAIR      80  76  87 E7        30.10R                  
FT MYERS       FAIR      80  75  84 E6        30.07R                  
SOUTHWEST INTL FAIR      81  76  84 E6        30.08R                  
MARCO ISLAND   FAIR      81  76  84 MISG      30.08R                  
IMMOKALEE      FAIR      82  77  83 E6        30.07R                  
MARATHON       FAIR      87  76  69 E5        30.04R HX  97           
KEY WEST NAS   FAIR      87  75  67 SE9       30.04R HX  96           
KEY WEST INTL  FAIR      85  76  74 SE9       30.04R                  

STATION/POSITION SKY/WX   TEMP    WIND        PRES    WAVE   SWELL
                          AIR SEA DIR/SP/G            HT/PER HT/PER
                          (F)     (DEG/KT/KT) (MB)    (FT/S) (FT/S)
NAPLES                     80 86              1018.3R
26.0N   85.6W              84 85  120/  8/ 10 1017.7R   2/ 6   2/ 6
DRY TORTUGAS               85     130/ 11/ 11 1017.5R
SAND KEY                   85     120/ 10/ 11 1016.2
SOMBRERO KEY               84     100/  8/ 11 1017.5
LONG KEY                   85                 1016.8

$$
FLZ067-068-071>074-168-172>174-201400-
SOUTHEAST FLORIDA 
  
CITY           SKY/WX    TMP DP  RH WIND       PRES   REMARKS
W PALM BEACH   PTSUNNY   83  74  74 SE10      30.10R THUNDER          
BOCA RATON     MOSUNNY   86  75  70 SE5       30.09R THUNDER HX  95   
FT LAUDER-EXEC FAIR      81  76  84 CALM      30.07R THUNDER          
FT LAUDERDALE  PTSUNNY   82  75  79 S3        30.06S                  
POMPANO BEACH  FAIR      84  74  71 SE6       30.07R                  
PEMBROKE PINES FAIR      81  74  79 N3        30.08S                  
OPA LOCKA      FAIR      81  76  84 CALM      30.07S                  
MIAMI          PTSUNNY   83  72  69 CALM      30.06S                  
WEST KENDALL     N/A    N/A N/A N/A MISG      30.06S                  
HOMESTEAD      FAIR      87  77  72 E9        30.05S HX  98           

STATION/POSITION SKY/WX   TEMP    WIND        PRES    WAVE   SWELL
                          AIR SEA DIR/SP/G            HT/PER HT/PER
                          (F)     (DEG/KT/KT) (MB)    (FT/S) (FT/S)
PORT EVERGLADES            82     150/  7/ 10 1018.2R
VIRGINIA KEY                      110/ 10/ 13   N/A
LAKE WORTH                 83 84  170/ 13/ 14 1020.1R
FOWEY ROCKS                83 85  110/  9